Regional Weather Roundup
Issued by NWS

Home | Current Version | Previous Version | Text Only | Print | Product List | Glossary On
Versions: 1 2 3 4 5 6 7 8 9 10 11 12 13 14 15 16 17 18 19 20 21 22 23 24 25 26 27 28 29 30 31 32 33 34 35 36 37 38 39 40 41 42 43 44 45 46 47 48 49 50
000
ASUS43 KDMX 011807
RWRIA

WEATHER ROUNDUP FOR IOWA
NATIONAL WEATHER SERVICE DES MOINES IA
100 PM CDT SAT AUG 01 2015

NOTE: "FAIR" INDICATES FEW OR NO CLOUDS BELOW 12,000 FEET WITH NO
SIGNIFICANT WEATHER AND/OR OBSTRUCTIONS TO VISIBILITY.

* - THESE STATIONS ARE NOT NWS STATIONS...THUS NOT UNDER NWS
QUALITY CONTROL.  THEY ALSO DO NOT REPORT WEATHER SUCH
AS PRECIPITATION OR FOG.

IAZ001>003-012>014-020>022-031>034-043>046-011900-
   NORTHWEST IOWA

CITY           SKY/WX    TMP DP  RH WIND       PRES   REMARKS
CARROLL *      SUNNY     82  68  61 W6        30.01F HX  85
CHEROKEE *     CLOUDY    81  70  69 W9        30.01S HX  85
DENISON *      SUNNY     79  68  69 SW5       30.00F HX  81
LE MARS *      SUNNY     81  66  61 W10       30.02R HX  83
ORANGE CITY *  SUNNY     79  66  65 W8        30.01F HX  81
SHELDON *      SUNNY     81  68  65 W12       29.99F HX  83
SIOUX CITY     PTSUNNY   81  66  60 W9        30.01S HX  83
6HR MIN TEMP:  65; 6HR MAX TEMP:  82;

SPENCER        PTSUNNY   83  66  56 SW12      30.00F HX  85
6HR MIN TEMP:  66; 6HR MAX TEMP:  84;

STORM LAKE *   SUNNY     82  70  65 W7G13     30.02F HX  86
$$

IAZ055>058-069>071-079>083-090>094-011900-
   SOUTHWEST IOWA

CITY           SKY/WX    TMP DP  RH WIND       PRES   REMARKS
ATLANTIC *     SUNNY     81  70  69 CALM      30.02F HX  84
AUDUBON *      SUNNY     82  70  65 CALM      30.03F HX  86
CLARINDA *     SUNNY     82  72  69 CALM      30.04F HX  87
COUNCIL BLFS * SUNNY     77  68  73 NE7       30.01F
CRESTON *      SUNNY     79  72  78 SW5       30.04F HX  82
HARLAN  *      SUNNY     81  77  89 SW3       30.05F HX  88
LAMONI         CLOUDY    83  72  69 SW5       30.02F HX  88
6HR MIN TEMP:  70; 6HR MAX TEMP:  83;

RED OAK *      SUNNY     81  72  74 E5        30.02F HX  84
SHENANDOAH *   SUNNY     81  72  74 VRB5      30.03F HX  84
$$

IAZ047>049-059>061-072>074-084-011900-
   CENTRAL IOWA

CITY           SKY/WX    TMP DP  RH WIND       PRES   REMARKS
AMES           MOSUNNY   83  73  72 SW12      29.99F HX  89
6HR MIN TEMP:  60; 6HR MAX TEMP:  84;

ANKENY *       SUNNY     84  72  65 SW10      30.00F HX  89
CHARITON *     SUNNY     82  72  69 W5        30.02S HX  87
DES MOINES     PTSUNNY   84  69  60 W9        30.01F HX  88
6HR MIN TEMP:  69; 6HR MAX TEMP:  85;

GRINNELL*      MOSUNNY   82  70  65 SW9       30.01F HX  86
KNOXVILLE *    SUNNY     82  72  69 W6        30.00F HX  87
MARSHALLTOWN   MOSUNNY   83  72  69 SW9       29.99F HX  88
6HR MIN TEMP:  63; 6HR MAX TEMP:  83;

PELLA *        PTSUNNY   85  75  71 S3        30.01F HX  94
PERRY *          N/A     82  75  78 W8        30.01F HX  89
$$

IAZ004>006-015-016-023>025-035-036-011900-
   NORTH CENTRAL IOWA

CITY           SKY/WX    TMP DP  RH WIND       PRES   REMARKS
ALGONA *       SUNNY     84  72  65 W8        29.99F HX  89
CLARION *      SUNNY     82  70  65 W8        29.99F HX  86
ESTHERVILLE    MOSUNNY   81  68  64 W12       29.99F HX  84
6HR MIN TEMP:  64; 6HR MAX TEMP:  82;

FORT DODGE *   PTSUNNY   82  72  69 SW8       30.00F HX  87
MASON CITY     MOSUNNY   85  71  63 NW7       30.00F HX  90
6HR MIN TEMP:  69; 6HR MAX TEMP:  85;

FOREST CITY *  MOSUNNY   82  68  61 W6        29.99F HX  85
IOWA FALLS *     N/A     83  70  65 SW9       30.01S HX  86
$$

IAZ007>011-017>019-026>030-037>042-050>054-066-011900-
   NORTHEAST IOWA

CITY           SKY/WX    TMP DP  RH WIND       PRES   REMARKS
CEDAR RAPIDS   PTSUNNY   82  67  60 SW13      29.99F HX  84
6HR MIN TEMP:  60; 6HR MAX TEMP:  82;

CHARLES CITY * SUNNY     82  70  65 NW12      29.98F HX  86
CLINTON *      MOSUNNY   82  63  51 SW14      30.01F HX  83
DECORAH *      SUNNY     81  66  61 VRB7G15   29.96F HX  83
DUBUQUE        MOSUNNY   83  65  54 W16G25    29.98F HX  85
6HR MIN TEMP:  59; 6HR MAX TEMP:  83;

MONTICELLO *   SUNNY     84  68  58 W12       29.98F HX  87
OELWEIN *      MOSUNNY   82  70  65 NW9       29.98F HX  86
WATERLOO       PTSUNNY   84  68  58 W9        29.96F HX  87
6HR MIN TEMP:  60; 6HR MAX TEMP:  84;

$$

IAZ064-065-067-068-078-011900-
   EAST CENTRAL IOWA

CITY           SKY/WX    TMP DP  RH WIND       PRES   REMARKS
DAVENPORT      MOSUNNY   83  63  50 SW10      30.00F HX  84
6HR MIN TEMP:  62; 6HR MAX TEMP:  83;

IOWA CITY      PTSUNNY   84  64  50 SW10      30.00F HX  85
6HR MIN TEMP:  62; 6HR MAX TEMP:  84;

MT. PLEASANT * CLOUDY    84  58  41 SW7       30.01F HX  83
MUSCATINE *    SUNNY     86  61  42 SW14      29.99F HX  86
QUAD CITIES    MOSUNNY   86  60  41 SW13G20   29.99F HX  86
6HR MIN TEMP:  62; 6HR MAX TEMP:  87;

$$

IAZ062-063-075>077-085>089-095>099-011900-
   SOUTHEAST IOWA

CITY           SKY/WX    TMP DP  RH WIND       PRES   REMARKS
BURLINGTON     CLOUDY    83  65  54 SW8       30.01F HX  85
6HR MIN TEMP:  63; 6HR MAX TEMP:  83;

FAIRFIELD *    SUNNY     82  64  54 S8        30.01F HX  84
FORT MADISON * SUNNY     82  64  54 S6        30.02F HX  84
KEOKUK *       SUNNY     82  66  57 SW10      30.01F HX  85
OSKALOOSA *      N/A     82  69  65 SW3       30.02F HX  85
CENTERVILLE *  SUNNY     82  72  69 S8        30.03F HX  87
OTTUMWA        CLOUDY    81  71  71 S6        30.00F HX  85
6HR MIN TEMP:  65; 6HR MAX TEMP:  82;

WASHINGTON *   SUNNY     82  64  54 SW14      30.01F HX  84
$$

ABBREVIATIONS USED IN REMARKS
   TC - TEMPERATURES IN CELSIUS
  WCI - WIND CHILL INDEX
   HX - HEAT INDEX
  VSB - VISIBILITY
$$



USA.gov is the U.S. government's official web portal to all federal, state and local government web resources and services.